[[{"header":{"parameterUnit":"m.s-1","parameterCategory":1,"la1":30.2991,"la2":30.254,"lo1":-89.0895,"lo2":-89.0444,"dy":0.0017,"dx":0.0017,"nx":28,"ny":28,"refTime":"2023-10-11T09:00:00:Z","depth":0,"parameterNumber":2,"parameterNumberName":"U-component_of_WINDS"},"data":[0,0,0,0,0,0,0,0,0,0,0,0,0,0,0,0,0,0,0,0,0,0,0,0,0,0,0,0,0,0,0,0,0,0,0,0,0,0,0,0,0,0,0,0,0,0,0,0,0,0,0,0,0,0,0,0,0,0,-3.7732,-3.7733,0,-3.7809,-3.781,-3.781,-3.7725,-3.7722,-3.7719,-3.7716,-3.7793,-3.7798,-3.7803,0,0,0,0,0,0,0,0,0,0,0,0,0,-3.7509,-3.7514,-3.7732,-3.7733,-3.7734,-3.7809,-3.781,-3.7811,-3.7726,-3.7722,-3.7718,-3.7714,-3.7792,-3.7798,-3.7804,0,0,0,0,0,0,0,0,0,0,0,0,0,-3.7598,-3.7515,-3.7732,-3.77,-3.7698,-3.7808,-3.781,-3.7811,-3.7727,-3.7722,-3.7717,-3.7712,-3.779,-3.7797,-3.7805,-3.7949,0,0,-3.7828,-3.7831,0,0,0,0,0,0,0,0,-3.7593,-3.7606,-3.7704,-3.7703,-3.7701,-3.7752,-3.7759,-3.7857,-3.7728,-3.7716,-3.7716,-3.771,-3.7784,-3.7791,-3.7816,-3.7952,-3.7956,-3.7829,-3.7833,-3.7836,-3.7839,0,0,0,0,0,0,0,-3.7587,-3.7602,-3.7762,-3.7706,-3.7704,-3.7682,-3.7689,-3.7778,-3.7776,-3.7717,-3.7711,-3.7721,-3.7782,-3.7809,-3.7818,-3.7957,-3.7828,-3.7835,-3.784,-3.7843,-3.8213,-3.8218,0,0,0,0,0,0,-3.7585,-3.7598,-3.776,-3.7764,-3.7634,-3.769,-3.7698,-3.7741,-3.7775,-3.7775,-3.7725,-3.7717,-3.7799,-3.7809,-3.782,-3.799,-3.7836,-3.7844,-3.7848,-3.8208,-3.8214,-3.822,0,0,0,0,0,0,-3.758,-3.76,-3.7757,-3.768,-3.7698,-3.7699,-3.7748,-3.7745,-3.7772,-3.7781,-3.778,-3.7754,-3.7795,-3.7809,-3.7917,-3.7992,-3.7847,-3.7854,-3.8202,-3.821,-3.8217,-3.8333,0,0,0,0,0,0,-3.7574,-3.7599,-3.7654,-3.7681,-3.7702,-3.7854,-3.7752,-3.775,-3.7786,-3.7776,-3.7808,-3.7808,-3.7793,-3.7906,-3.7925,-3.8,-3.786,-3.8195,-3.8205,-3.8214,-3.8322,-3.8344,-3.8362,0,0,0,0,0,-3.7566,-3.7684,-3.7658,-3.7678,-3.7772,-3.7858,-3.787,-3.785,-3.7792,-3.7848,-3.7853,-3.7807,-3.798,-3.7918,-3.7938,-3.8017,-3.819,-3.8202,-3.8214,-3.8313,-3.8339,-3.8361,0,0,0,0,0,0,-3.7665,-3.7687,-3.7658,-3.7788,-3.7822,-3.7844,-3.7913,-3.7878,-3.7929,-3.7917,-3.7889,-3.7897,-3.8011,-3.8024,-3.7954,-3.8157,-3.8076,-3.8092,-3.8145,-3.8169,-3.8189,-3.8184,-3.7866,0,0,0,0,0,-3.7702,-3.7771,-3.7786,-3.7899,-3.7917,-3.7913,-3.7949,-3.793,-3.7964,-3.7978,-3.7991,-3.8026,-3.8087,-3.8129,-3.8186,-3.8323,-3.8328,-3.8387,-3.8407,-3.8423,-3.8438,-3.851,-3.8536,-3.8259,-3.8259,-3.8258,0,0,-3.7779,-3.7799,-3.7845,-3.7919,-3.7943,-3.8015,-3.7925,-3.8005,-3.8057,-3.799,-3.8093,-3.8104,-3.814,-3.8262,-3.8317,-3.8277,-3.8515,-3.8438,-3.8451,-3.8457,-3.8525,-3.8551,-3.8574,-3.8267,-3.8265,-3.8264,0,0,-3.7956,-3.7979,-3.8075,-3.8101,-3.8138,-3.8134,-3.8157,-3.8184,-3.8189,-3.8291,-3.8242,-3.8303,-3.8411,-3.8438,-3.8466,-3.8652,-3.8612,-3.8671,-3.8775,-3.8846,-3.8868,-3.8887,-3.8953,-3.8977,-3.8686,-3.8686,-3.8686,0,-3.8047,-3.8153,-3.8129,-3.8212,-3.8246,-3.8188,-3.8285,-3.8311,-3.8365,-3.8389,-3.8343,-3.8476,-3.8496,-3.8624,-3.8669,-3.8694,-3.8719,-3.8668,-3.8867,-3.8886,-3.8903,-3.8966,-3.8991,-3.8693,-3.8692,-3.8692,-3.8691,0,-3.8263,-3.8337,-3.841,-3.8465,-3.8506,-3.8596,-3.8584,-3.8629,-3.8606,-3.8606,-3.8711,-3.8732,-3.8793,-3.8822,-3.88,-3.8946,-3.892,-3.8871,-3.8789,-3.8937,-3.8995,-3.9019,-3.8703,-3.8701,-3.8698,-3.8697,0,0,-3.8506,-3.8545,-3.8572,-3.8595,-3.8632,-3.8688,-3.8774,-3.8833,-3.8872,-3.8911,-3.8982,-3.9074,-3.9028,-3.906,-3.904,-3.9103,-3.9247,-3.9045,-3.9046,-3.9082,-3.9409,-3.9446,-3.9474,-3.922,-3.9225,-3.9228,-3.9406,0,-3.8684,-3.8834,-3.8814,-3.8957,-3.9025,-3.897,-3.9045,-3.9075,-3.9077,-3.9134,-3.9135,-3.9201,-3.9136,-3.9154,-3.9213,-3.9217,-3.9313,-3.9204,-3.9286,-3.9289,-3.9279,-3.9505,-3.9545,-3.9711,-3.9428,-3.9432,-3.9435,0,-3.8912,-3.8959,-3.911,-3.9134,-3.9162,-3.923,-3.9282,-3.9337,-3.9369,-3.9366,-3.9401,-3.937,-3.9455,-3.9371,-3.9487,-3.9413,-3.9445,-3.9452,-3.9458,-3.9465,-3.9372,-3.9518,-3.9764,-3.9789,-3.9471,-3.9468,-3.9465,0,-3.9074,-3.9175,-3.9278,-3.9299,-3.9331,-3.938,-3.9395,-3.9422,-3.9459,-3.9504,-3.9527,-3.9581,-3.9611,-3.9653,-3.9637,-3.9577,-3.9756,-3.9671,-3.9755,-3.9756,-3.9796,-3.9794,-4.0051,-3.9816,-3.9816,-3.9816,-3.9815,0,-3.9275,-3.9369,-3.9351,-3.9415,-3.9518,-3.9493,-3.9596,-3.9604,-3.9629,-3.9692,-3.9647,-3.9707,-3.9682,-3.9741,-3.9728,-3.9826,-3.984,-3.9839,-3.9835,-3.9843,-3.9843,-3.9864,-3.9852,-3.9822,-3.9821,-3.9819,-3.9818,0,-3.9474,-3.9466,-3.9574,-3.9595,-3.9602,-3.9678,-3.9695,-3.9754,-3.9751,-3.9832,-3.9849,-3.9846,-3.9912,-3.99,-3.9972,-3.9964,-4.0086,-4.0067,-4.0076,-4.0071,-4.0157,-4.0149,-4.0436,-4.0472,-4.0214,-4.0217,-4.0219,0,-3.9603,-3.9674,-3.9702,-3.9742,-3.9761,-3.9825,-3.9861,-3.9839,-3.9879,-3.992,-3.9974,-4.0035,-4.0084,-4.0192,-4.0195,-4.025,-4.0232,-4.0329,-4.024,-4.0246,-4.0234,-4.023,-4.0236,-4.0347,-4.035,-4.0352,-4.0354,0,-3.9833,-3.9825,-3.988,-3.9934,-3.9979,-4.002,-4.0057,-4.0091,-4.0071,-4.0118,-4.0186,-4.0223,-4.0297,-4.0359,-4.041,-4.0424,-4.0386,-4.0382,-4.0404,-4.0414,-4.0416,-4.0416,-4.0124,-4.0376,-4.0374,-4.0372,-4.0371,-4.037,-4.0001,-4.0061,-4.009,-4.0153,-4.0178,-4.0213,-4.0269,-4.0273,-4.0329,-4.0388,-4.0371,-4.0447,-4.0475,-4.0539,-4.0559,-4.0618,-4.0582,-4.0614,-4.0623,-4.0631,-4.0641,-4.0407,-4.0627,-4.0626,-4.0626,-4.0625,-4.0625,0,-4.0228,-4.0244,-4.0302,-4.0354,-4.0403,-4.0363,-4.0401,-4.0444,-4.0512,-4.0542,-4.059,-4.0666,-4.0726,-4.0733,-4.0789,-4.0834,-4.0818,-4.0849,-4.0846,-4.085,-4.0671,-4.0646,-4.0862,-4.0862,-4.0861,-4.0861,-4.0861,-4.0861,-4.0352,-4.0452,-4.0448,-4.0559,-4.0573,-4.0648,-4.0673,-4.0704,-4.0728,-4.0815,-4.0865,-4.0869,-4.0889,-4.0946,-4.0998,-4.0998,-4.1021,-4.106,-4.1053,-4.0886,-4.0863,-4.084,-4.0816,-4.1065,-4.1065,-4.1227,-4.1229,-4.123]},{"header":{"parameterUnit":"m.s-1","parameterCategory":1,"la1":30.2991,"la2":30.254,"lo1":-89.0895,"lo2":-89.0444,"dy":0.0017,"dx":0.0017,"nx":28,"ny":28,"refTime":"2023-10-11T09:00:00:Z","depth":0,"parameterNumber":3,"parameterNumberName":"V-component_of_WINDS"},"data":[0,0,0,0,0,0,0,0,0,0,0,0,0,0,0,0,0,0,0,0,0,0,0,0,0,0,0,0,0,0,0,0,0,0,0,0,0,0,0,0,0,0,0,0,0,0,0,0,0,0,0,0,0,0,0,0,0,0,-5.5031,-5.5032,0,-5.5079,-5.508,-5.508,-5.4994,-5.4991,-5.4988,-5.4985,-5.5031,-5.5035,-5.5038,0,0,0,0,0,0,0,0,0,0,0,0,0,-5.4859,-5.4863,-5.5031,-5.5032,-5.5032,-5.5079,-5.508,-5.5081,-5.4994,-5.4991,-5.4987,-5.4984,-5.5029,-5.5034,-5.5039,0,0,0,0,0,0,0,0,0,0,0,0,0,-5.4923,-5.4864,-5.5031,-5.4995,-5.4992,-5.5079,-5.508,-5.5081,-5.4995,-5.499,-5.4986,-5.4982,-5.5028,-5.5034,-5.5039,-5.5163,0,0,-5.5057,-5.506,0,0,0,0,0,0,0,0,-5.492,-5.493,-5.5,-5.4997,-5.4995,-5.5026,-5.5036,-5.5108,-5.4996,-5.4994,-5.4985,-5.498,-5.5032,-5.5038,-5.5056,-5.5165,-5.5167,-5.5058,-5.5062,-5.5064,-5.5066,0,0,0,0,0,0,0,-5.4915,-5.4927,-5.505,-5.5001,-5.4998,-5.4975,-5.4979,-5.5049,-5.5037,-5.4994,-5.4987,-5.4994,-5.503,-5.5051,-5.5057,-5.5168,-5.5058,-5.5063,-5.5067,-5.5069,-5.5378,-5.5382,0,0,0,0,0,0,-5.4916,-5.4924,-5.5048,-5.5051,-5.4946,-5.4981,-5.4986,-5.502,-5.5036,-5.5034,-5.4998,-5.499,-5.5043,-5.505,-5.5058,-5.5202,-5.5064,-5.507,-5.5073,-5.5373,-5.5379,-5.5384,0,0,0,0,0,0,-5.4913,-5.4928,-5.5046,-5.4986,-5.4999,-5.4989,-5.5028,-5.5024,-5.5044,-5.5039,-5.5036,-5.5022,-5.504,-5.505,-5.5137,-5.5203,-5.5072,-5.5078,-5.5368,-5.5375,-5.5382,-5.5493,0,0,0,0,0,0,-5.4908,-5.4927,-5.4975,-5.4988,-5.5003,-5.5127,-5.5032,-5.5028,-5.5055,-5.5045,-5.5061,-5.5059,-5.5037,-5.5129,-5.5143,-5.5209,-5.5082,-5.5362,-5.5371,-5.5379,-5.5484,-5.5503,-5.552,0,0,0,0,0,-5.4902,-5.5004,-5.4978,-5.4994,-5.5063,-5.5131,-5.5139,-5.5113,-5.506,-5.5108,-5.5104,-5.5058,-5.5193,-5.5139,-5.5154,-5.5222,-5.5358,-5.5368,-5.5379,-5.5476,-5.5499,-5.552,0,0,0,0,0,0,-5.4999,-5.5005,-5.4976,-5.5086,-5.5109,-5.5116,-5.5175,-5.5139,-5.5177,-5.5166,-5.513,-5.5134,-5.5229,-5.5234,-5.5173,-5.5341,-5.5266,-5.528,-5.5335,-5.5358,-5.5375,-5.5372,-5.5087,0,0,0,0,0,-5.5033,-5.5089,-5.5091,-5.5187,-5.52,-5.5186,-5.5215,-5.5192,-5.5214,-5.5223,-5.5226,-5.5247,-5.5294,-5.5326,-5.5369,-5.5484,-5.5485,-5.5538,-5.5556,-5.5571,-5.5584,-5.5644,-5.5667,-5.5419,-5.5419,-5.5418,0,0,-5.5104,-5.5114,-5.5152,-5.5207,-5.5222,-5.5279,-5.5195,-5.5259,-5.5301,-5.5232,-5.5315,-5.5318,-5.534,-5.5441,-5.5486,-5.5448,-5.5652,-5.5585,-5.5597,-5.5601,-5.5657,-5.568,-5.5701,-5.5426,-5.5425,-5.5423,0,0,-5.5262,-5.5276,-5.5358,-5.5375,-5.5399,-5.5388,-5.5408,-5.5421,-5.542,-5.5504,-5.5453,-5.5501,-5.5583,-5.56,-5.562,-5.5784,-5.5742,-5.5798,-5.5893,-5.5952,-5.5972,-5.5989,-5.6047,-5.6068,-5.5811,-5.5811,-5.5811,0,-5.5347,-5.5433,-5.5404,-5.5472,-5.5497,-5.5438,-5.5519,-5.5536,-5.5573,-5.5591,-5.5548,-5.565,-5.566,-5.5764,-5.5804,-5.5822,-5.5842,-5.5797,-5.5971,-5.5988,-5.6004,-5.6058,-5.608,-5.5818,-5.5817,-5.5816,-5.5816,0,-5.5535,-5.5596,-5.5658,-5.5696,-5.5728,-5.5802,-5.5783,-5.5818,-5.5793,-5.5787,-5.5871,-5.5881,-5.5925,-5.5948,-5.5924,-5.6049,-5.6024,-5.5978,-5.5901,-5.6035,-5.6085,-5.6106,-5.5827,-5.5825,-5.5823,-5.5821,0,0,-5.5757,-5.5777,-5.5801,-5.5817,-5.5838,-5.5883,-5.5954,-5.5998,-5.6029,-5.6055,-5.6113,-5.6183,-5.614,-5.6162,-5.6138,-5.619,-5.6318,-5.6136,-5.6136,-5.6169,-5.6455,-5.6491,-5.6516,-5.6291,-5.6295,-5.6298,-5.6453,0,-5.5914,-5.6038,-5.6013,-5.6133,-5.6187,-5.6132,-5.6193,-5.6212,-5.6208,-5.6252,-5.6246,-5.6296,-5.6235,-5.6248,-5.6297,-5.6293,-5.6375,-5.6281,-5.6343,-5.6345,-5.634,-5.6542,-5.658,-5.6727,-5.6473,-5.6477,-5.6479,0,-5.6114,-5.6149,-5.6276,-5.6288,-5.6309,-5.6365,-5.6403,-5.6446,-5.6466,-5.6459,-5.6484,-5.645,-5.6518,-5.6441,-5.6534,-5.6471,-5.6494,-5.6496,-5.6501,-5.6506,-5.6421,-5.6552,-5.6773,-5.6795,-5.651,-5.6508,-5.6505,0,-5.6262,-5.6341,-5.6427,-5.6442,-5.6458,-5.6499,-5.6507,-5.6523,-5.655,-5.6582,-5.66,-5.6639,-5.6661,-5.6691,-5.6668,-5.6615,-5.6765,-5.6686,-5.676,-5.6761,-5.6794,-5.6793,-5.7022,-5.681,-5.681,-5.6809,-5.6809,0,-5.6441,-5.652,-5.6493,-5.6546,-5.6633,-5.6602,-5.6688,-5.669,-5.6704,-5.6754,-5.6708,-5.6756,-5.6723,-5.6768,-5.6751,-5.683,-5.684,-5.6835,-5.683,-5.684,-5.684,-5.6855,-5.6844,-5.6815,-5.6814,-5.6813,-5.6812,0,-5.6621,-5.6607,-5.6696,-5.6705,-5.6708,-5.6772,-5.6778,-5.6826,-5.6817,-5.6882,-5.6895,-5.6882,-5.6933,-5.6913,-5.6966,-5.6954,-5.7056,-5.7037,-5.705,-5.7045,-5.7119,-5.7113,-5.7366,-5.7397,-5.7166,-5.7168,-5.717,0,-5.6736,-5.6796,-5.681,-5.6842,-5.6854,-5.6904,-5.6932,-5.6904,-5.6935,-5.6961,-5.7006,-5.7052,-5.7088,-5.7171,-5.7166,-5.7206,-5.7187,-5.7273,-5.7193,-5.7201,-5.7188,-5.7185,-5.719,-5.7289,-5.7292,-5.7294,-5.7296,0,-5.6941,-5.6931,-5.6974,-5.7014,-5.7049,-5.7079,-5.7105,-5.7133,-5.7106,-5.7142,-5.7194,-5.7222,-5.7276,-5.7323,-5.7358,-5.7365,-5.7326,-5.7321,-5.734,-5.7351,-5.7356,-5.7354,-5.7093,-5.7316,-5.7314,-5.7312,-5.7311,-5.731,-5.7092,-5.7142,-5.716,-5.7209,-5.7226,-5.7251,-5.7296,-5.7294,-5.7337,-5.738,-5.736,-5.7419,-5.7436,-5.748,-5.7492,-5.7537,-5.7503,-5.7531,-5.7538,-5.7545,-5.7555,-5.7349,-5.7543,-5.7542,-5.7542,-5.7541,-5.7541,0,-5.7294,-5.7303,-5.7348,-5.7386,-5.7424,-5.7385,-5.7411,-5.7445,-5.7499,-5.7518,-5.7554,-5.7613,-5.7657,-5.7655,-5.7696,-5.7732,-5.7715,-5.7744,-5.7741,-5.7743,-5.7583,-5.7562,-5.7757,-5.7757,-5.7757,-5.7757,-5.7757,-5.7757,-5.7404,-5.7486,-5.7478,-5.7568,-5.7575,-5.7634,-5.7653,-5.7675,-5.769,-5.7758,-5.7795,-5.7794,-5.7804,-5.7845,-5.7883,-5.7881,-5.7898,-5.7934,-5.7925,-5.7776,-5.7754,-5.7734,-5.7714,-5.7938,-5.7938,-5.8081,-5.8082,-5.8083]}]]